Weather History for Georgetown, SC

Change the Weather History Date:

Wednesday, September 19, 2012

  Actual Average Record
Temperature  
Mean Temperature 72 °F -  
Max Temperature 80 °F 84 °F 86 °F (2010)
Min Temperature 64 °F 65 °F 59 °F (2013)
Cooling Degree Days 7    
Growing Degree Days 22 (Base 50)    
Moisture  
Dew Point 69 °F    
Average Humidity 92    
Maximum Humidity 100    
Minimum Humidity 78    
Precipitation  
Precipitation 0.00 in - - ()
Sea Level Pressure  
Sea Level Pressure 29.97 in    
Wind  
Wind Speed 3 mph (North)    
Max Wind Speed 14 mph    
Max Gust Speed 18 mph    
Visibility 10 miles    
Events      
Averages and records for this station are not official NWS values.
T = Trace of Precipitation, MM = Missing Value Source: NWS Daily Summary

Daily Weather History Graph

Daily Weather History Graph

Search for Another Location

Airport:

Trip Planner

Search our weather history database for the weather conditions in past years. The results will help you decide how hot, cold, wet, or windy it might be!

Date:

Astronomy

Sep. 19, 2012 Rise Set
Actual Time 7:03 AM EDT 7:17 PM EDT
Civil Twilight 6:38 AM EDT 7:42 PM EDT
Nautical Twilight 6:09 AM EDT 8:11 PM EDT
Astronomical Twilight 5:40 AM EDT 8:40 PM EDT
Moon 10:56 AM EDT (9/19) 9:41 PM EDT (9/19)
Length of Visible Light 13h 03m
Length of Day
12h 13m
Waxing Crescent, 17% of the Moon is Illuminated
Sep 19
Waxing Crescent
Sep 22
First Quarter
Sep 29
Full
Oct 8
Last Quarter
Oct 15
New

Hourly Weather History & Observations

Time (EDT) Temp. Heat Index Dew Point Humidity Pressure Visibility Wind Dir Wind Speed Gust Speed Precip Events Conditions
12:15 AM 71.6 °F - 71.6 °F 100% 29.88 in 10.0 mi WSW 3.5 mph - N/A   Clear
12:35 AM 71.6 °F - 71.6 °F 100% 29.88 in 10.0 mi Calm Calm - N/A   Clear
12:55 AM 69.8 °F - 69.8 °F 100% 29.87 in 10.0 mi Calm Calm - N/A   Clear
1:15 AM 69.8 °F - 69.8 °F 100% 29.87 in 10.0 mi Calm Calm - N/A   Clear
1:35 AM 69.8 °F - 69.8 °F 100% 29.88 in 10.0 mi Calm Calm - N/A   Clear
1:55 AM 69.8 °F - 69.8 °F 100% 29.88 in 10.0 mi Calm Calm - N/A   Clear
2:15 AM 69.8 °F - 69.8 °F 100% 29.87 in 10.0 mi Calm Calm - N/A   Clear
2:35 AM 69.8 °F - 69.8 °F 100% 29.87 in 10.0 mi Calm Calm - N/A   Clear
2:55 AM 69.8 °F - 69.8 °F 100% 29.86 in 10.0 mi Calm Calm - N/A   Clear
3:15 AM 68.0 °F - 68.0 °F 100% 29.86 in 10.0 mi Calm Calm - N/A   Mostly Cloudy
3:35 AM 69.8 °F - 69.8 °F 100% 29.87 in 10.0 mi Calm Calm - N/A   Scattered Clouds
3:55 AM 69.8 °F - 69.8 °F 100% 29.86 in 10.0 mi Calm Calm - N/A   Scattered Clouds
4:15 AM 69.8 °F - 69.8 °F 100% 29.86 in 10.0 mi Calm Calm - N/A   Clear
4:35 AM 69.8 °F - 69.8 °F 100% 29.86 in 10.0 mi Calm Calm - N/A   Clear
4:55 AM 69.8 °F - 69.8 °F 100% 29.87 in 10.0 mi Calm Calm - N/A   Clear
5:15 AM 68.0 °F - 68.0 °F 100% 29.87 in 10.0 mi Calm Calm - N/A   Mostly Cloudy
5:55 AM 68.0 °F - 68.0 °F 100% 29.88 in 10.0 mi Calm Calm - N/A   Mostly Cloudy
6:35 AM 68.0 °F - 68.0 °F 100% 29.89 in 10.0 mi Calm Calm - N/A   Scattered Clouds
6:55 AM 68.0 °F - 68.0 °F 100% 29.90 in 10.0 mi Calm Calm - N/A   Scattered Clouds
7:15 AM 68.0 °F - 68.0 °F 100% 29.90 in 10.0 mi Calm Calm - N/A   Clear
7:35 AM 68.0 °F - 68.0 °F 100% 29.91 in 10.0 mi Calm Calm - N/A   Clear
7:55 AM 69.8 °F - 69.8 °F 100% 29.93 in 10.0 mi Calm Calm - N/A   Mostly Cloudy
8:15 AM 71.6 °F - 71.6 °F 100% 29.93 in 10.0 mi Calm Calm - N/A   Mostly Cloudy
8:35 AM 71.6 °F - 71.6 °F 100% 29.93 in 10.0 mi Calm Calm - N/A   Scattered Clouds
9:15 AM 73.4 °F - 73.4 °F 100% 29.94 in 10.0 mi WNW 3.5 mph - N/A   Scattered Clouds
9:35 AM 77.0 °F - 73.4 °F 89% 29.94 in 10.0 mi Calm Calm - N/A   Scattered Clouds
9:55 AM 77.0 °F - 73.4 °F 89% 29.95 in 10.0 mi Calm Calm - N/A   Scattered Clouds
10:15 AM 77.0 °F - 73.4 °F 89% 29.95 in 10.0 mi Calm Calm - N/A   Scattered Clouds
10:35 AM 78.8 °F - 71.6 °F 78% 29.95 in 10.0 mi NE 4.6 mph - N/A   Scattered Clouds
10:55 AM 77.0 °F - 73.4 °F 89% 29.96 in 10.0 mi Calm Calm - N/A   Overcast
11:35 AM 77.0 °F - 73.4 °F 89% 29.97 in 10.0 mi NNW 6.9 mph - N/A   Overcast
11:55 AM 77.0 °F - 73.4 °F 89% 29.98 in 10.0 mi NNW 8.1 mph - N/A   Overcast
12:15 PM 78.8 °F - 73.4 °F 83% 29.98 in 10.0 mi North 6.9 mph - N/A   Overcast
12:35 PM 78.8 °F - 73.4 °F 83% 29.98 in 10.0 mi NNW 9.2 mph - N/A   Overcast
12:55 PM 77.0 °F - 73.4 °F 89% 29.98 in 10.0 mi NNW 6.9 mph - N/A   Overcast
1:15 PM 78.8 °F - 73.4 °F 83% 29.98 in 10.0 mi North 9.2 mph - N/A   Overcast
1:35 PM 78.8 °F - 73.4 °F 83% 29.98 in 10.0 mi North 10.4 mph - N/A   Overcast
1:55 PM 80.6 °F 85.4 °F 73.4 °F 79% 29.99 in 10.0 mi NNW 9.2 mph - N/A   Overcast
2:15 PM 80.6 °F 85.4 °F 73.4 °F 79% 29.98 in 10.0 mi NW 9.2 mph - N/A   Overcast
2:35 PM 77.0 °F - 71.6 °F 83% 29.99 in 10.0 mi NNW 10.4 mph 17.3 mph N/A   Overcast
2:55 PM 77.0 °F - 71.6 °F 83% 29.99 in 10.0 mi NW 12.7 mph - N/A   Overcast
3:15 PM 73.4 °F - 71.6 °F 94% 30.00 in 10.0 mi NNW 8.1 mph 18.4 mph N/A   Overcast
3:35 PM 71.6 °F - 69.8 °F 94% 30.00 in 10.0 mi NNW 12.7 mph 18.4 mph N/A   Overcast
4:15 PM 69.8 °F - 68.0 °F 94% 30.01 in 10.0 mi North 13.8 mph 18.4 mph N/A   Overcast
4:35 PM 69.8 °F - 68.0 °F 94% 30.02 in 10.0 mi NNW 10.4 mph - N/A   Overcast
4:55 PM 69.8 °F - 68.0 °F 94% 30.02 in 10.0 mi NNW 11.5 mph - N/A   Overcast
5:15 PM 69.8 °F - 68.0 °F 94% 30.02 in 10.0 mi North 9.2 mph - N/A   Overcast
5:35 PM 71.6 °F - 66.2 °F 83% 30.03 in 10.0 mi North 10.4 mph - N/A   Overcast
5:55 PM 69.8 °F - 64.4 °F 83% 30.03 in 10.0 mi North 6.9 mph - N/A   Mostly Cloudy
6:15 PM 69.8 °F - 64.4 °F 83% 30.04 in 10.0 mi North 8.1 mph - N/A   Mostly Cloudy
6:35 PM 69.8 °F - 64.4 °F 83% 30.05 in 10.0 mi North 6.9 mph - N/A   Mostly Cloudy
6:55 PM 68.0 °F - 64.4 °F 88% 30.05 in 10.0 mi NNW 6.9 mph - N/A   Overcast
7:35 PM 68.0 °F - 64.4 °F 88% 30.06 in 10.0 mi NNW 6.9 mph - N/A   Overcast
7:55 PM 68.0 °F - 64.4 °F 88% 30.06 in 10.0 mi North 5.8 mph - N/A   Mostly Cloudy
8:15 PM 68.0 °F - 64.4 °F 88% 30.07 in 10.0 mi North 8.1 mph - N/A   Mostly Cloudy
8:35 PM 68.0 °F - 62.6 °F 83% 30.07 in 10.0 mi North 4.6 mph - N/A   Overcast
8:55 PM 66.2 °F - 62.6 °F 88% 30.08 in 10.0 mi North 6.9 mph - N/A   Overcast
9:15 PM 66.2 °F - 62.6 °F 88% 30.08 in 10.0 mi North 5.8 mph - N/A   Overcast
9:35 PM 66.2 °F - 62.6 °F 88% 30.09 in 10.0 mi North 4.6 mph - N/A   Overcast
9:55 PM 66.2 °F - 62.6 °F 88% 30.09 in 10.0 mi North 5.8 mph - N/A   Overcast
10:15 PM 64.4 °F - 62.6 °F 94% 30.09 in 10.0 mi NNE 10.4 mph - N/A   Overcast
10:35 PM 64.4 °F - 62.6 °F 94% 30.10 in 10.0 mi NNE 8.1 mph - N/A   Overcast
10:55 PM 64.4 °F - 62.6 °F 94% 30.10 in 10.0 mi NNE 6.9 mph - N/A   Overcast
11:15 PM 64.4 °F - 62.6 °F 94% 30.10 in 10.0 mi NNE 9.2 mph - N/A   Overcast
11:35 PM 64.4 °F - 62.6 °F 94% 30.10 in 10.0 mi NNE 6.9 mph - N/A   Overcast
11:55 PM 64.4 °F - 62.6 °F 94% 30.10 in 10.0 mi NNE 8.1 mph - N/A   Overcast